Location: Ferchesar
(52.6477°N, 12.4298°E)
Time: 15:22:06
(UTC+01:00)

Vanguard 2 Rocket - Pass Details

Date: 10 December 2021
Orbit: 554 x 3324 km, 32.9° (Epoch: 17 January)

Event Time Altitude Azimuth Distance (km) Brightness Sun altitude
Rises 19:23:14 0° 235° (SW) 3,352 10.6 -30.1°
Reaches altitude 10° 19:26:50 10° 209° (SSW) 2,794 9.7 -30.6°
Maximum altitude 19:30:01 14° 181° (S) 2,879 9.4 -31.1°
Enters shadow 19:31:31 13° 169° (SSE) 3,097 9.5 -31.3°
